User: anonymous   Login
Location: Unspecified
(0.0000°N, 0.0000°E)
Time: 19:21:58
(UTC+00:00)
Language:

STARLINK-30772 - Orbit

View from above orbital plane
View from above orbital plane
View from above satellite
View from above satellite

Ground track
Ground track

The orbit is defined by the following mean orbital elements,

1 58135U          26145.16313435 +.00000000 +00000-0 +87961-4 0 00004
2 58135  43.0057  60.5227 0001970 266.0884  93.9743 15.27573680    05
Epoch (UTC): 25 May 2026 03:54:54
Eccentricity: 0.0001970
inclination: 43.0057°
perigee height: 482 km
apogee height: 484 km
right ascension of ascending node: 60.5227°
argument of perigee: 266.0884°
revolutions per day: 15.27573680
mean anomaly at epoch: 93.9743°

The dashed part of the orbit path shows where the satellite is in the earth's shadow,  

DLR